"Pseudo-MPEC" for P22gfFM

Created 2025 Oct 6 8:35:19 UT using Find_Orb

Click here for an explanation of pseudo-MPECs

 
 Astrometry: 
     P22gfFM* C2025 10 02.59414505 15 21.803-15 16 54.65   ~A2G5 21.87wXNEOCPF52
     P22gfFM  C2025 10 02.60372205 15 20.480-15 17 11.90   ~A2G5 21.68wXNEOCPF52
     P22gfFM  C2025 10 02.61332305 15 19.158-15 17 28.97   ~A2G5 21.51wXNEOCPF52
     P22gfFM |C2025 10 03.24013005 13 55.290-15 35 57.40   ~A375 21.7 GVNEOCP807
     P22gfFM |C2025 10 03.25117905 13 53.770-15 36 17.00   ~A375 21.7 GVNEOCP807
     P22gfFM |C2025 10 03.26221005 13 52.220-15 36 36.80   ~A375 21.7 GVNEOCP807
     P22gfFM  C2025 10 05.45628505 08 45.114-16 40 58.63   ~A5BZ 21.4 GWNEOCPH01
     P22gfFM KC2025 10 05.46293305 08 44.136-16 41 10.00   ~A5BZ 21.5 GWNEOCPH01
     P22gfFM KC2025 10 05.46940905 08 43.151-16 41 21.24   ~A5BZ 21.4 GWNEOCPH01
     P22gfFM  C2025 10 05.62356105 08 20.879-16 45 44.82   ~A5IZ 21.72GVNEOCPF51
     P22gfFM  C2025 10 05.62437805 08 20.749-16 45 46.15   ~A5IZ 21.37GVNEOCPF51

Station data:
(807) Cerro Tololo Observatory, La Serena  (S30.169133 W70.805900)  Chile.
   Observer R. Holmes. 0.61-m f/6.5 astrograph + CCD.
(F51) Pan-STARRS 1, Haleakala  (N20.707234 W156.255910)  US/Hawaii.
   Observers J. Herman, T. Lowe, P. Minguez, A. Schultz, I. Smith. Measurers
   K. Chambers, T. de Boer, J. Fairlamb, H. Gao, M. Huber, C.-C. Lin, E.
   Magnier, Y. Ramanjooloo, R. Wainscoat, R. Weryk. 1.8-m Ritchey-Chrétien +
   CCD.
(F52) Pan-STARRS 2, Haleakala  (N20.707382 W156.255910)  US/Hawaii.
   Observers J. Herman, T. Lowe, P. Minguez, A. Schultz, I. Smith. Measurers
   K. Chambers, T. de Boer, J. Fairlamb, H. Gao, M. Huber, C.-C. Lin, E.
   Magnier, Y. Ramanjooloo, R. Wainscoat, R. Weryk. 1.8-m Ritchey-Chrétien +
   CCD.
(H01) Magdalena Ridge Observatory, Socorro  (N33.984833 W107.189333)  US/New
   Mexico.  Observers W. H. Ryan, E. V. Ryan. Measurer W. H. Ryan. 2.4-m
   f/8.9 reflector + CCD.

Orbital elements:  P22gfFM
   Perihelion 2025 Jul 16.461630 +/- 0.237 TT = 11:04:44.8 (JD 2460872.961630)
Epoch 2025 Oct  5.0 TT = JDT 2460953.5   Earth MOID: 0.1173   Ve: 0.0450
M  50.780227912 +/- 0.8             Me: 0.0781                   AutoNEOCP
n   0.630509755 +/- 0.00824         Peri.  100.370206 +/- 1.4
a   1.346919092 +/- 0.0117          Node   153.978099 +/- 0.55
e   0.74129407 +/- 0.0154           Incl.   21.000303 +/- 0.39
P   1.563/570.956d         H 20.20  G  0.15   U  9.5
q 0.348455946 +/- 0.0185    Q 2.345382238 +/- 0.0386      (J2000 ecliptic)
From 11 observations 2025 Oct. 2-5; mean residual 0".10
Residuals in arcseconds: 
251002 F52  .09-  .03-    251003 807  .12+  .12+    251005 H01  .22-  .10-    
251002 F52  .02-  .07-    251003 807  .08-  .10+    251005 F51  .06+  .02-    
251002 F52  .12+  .10+    251005 H01  .02+  .17-    251005 F51  .05-  .06+    
251003 807  .10-  .10-    251005 H01  .13+  .05-    

Ephemerides (geocentric):
Date (UTC) HH   RA             Dec           delta  r     elong  mag " sig PA
---- --------  ------------   ------------  ------ ------ -----  --- --------
2025 10 06 09  05 06 31.551   -17 07 03.52  .69287 1.4168 112.4 21.8 1.07   0
2025 10 06 10  05 06 25.427   -17 08 14.40  .69295 1.4172 112.4 21.8 1.13   0
2025 10 06 11  05 06 19.297   -17 09 25.23  .69303 1.4177 112.5 21.8 1.18   0
2025 10 06 12  05 06 13.161   -17 10 36.01  .69311 1.4181 112.5 21.8 1.24   0
2025 10 06 13  05 06 07.018   -17 11 46.74  .69319 1.4185 112.6 21.8 1.30   0
2025 10 06 14  05 06 00.870   -17 12 57.43  .69327 1.4190 112.6 21.8 1.36   0
2025 10 06 15  05 05 54.715   -17 14 08.06  .69334 1.4194 112.7 21.8 1.42   0
2025 10 06 16  05 05 48.554   -17 15 18.64  .69342 1.4198 112.7 21.8 1.48   1
2025 10 06 17  05 05 42.388   -17 16 29.18  .69350 1.4203 112.8 21.8 1.54   1
2025 10 06 18  05 05 36.215   -17 17 39.67  .69358 1.4207 112.8 21.8 1.60   1
2025 10 06 19  05 05 30.036   -17 18 50.10  .69366 1.4211 112.9 21.8 1.67   1
2025 10 06 20  05 05 23.851   -17 20 00.49  .69374 1.4216 112.9 21.8 1.73   1
2025 10 06 21  05 05 17.660   -17 21 10.83  .69383 1.4220 113.0 21.8 1.80   1
2025 10 06 22  05 05 11.463   -17 22 21.12  .69391 1.4224 113.0 21.8 1.87   1
2025 10 06 23  05 05 05.260   -17 23 31.35  .69399 1.4229 113.1 21.8 1.93   1
2025 10 07 00  05 04 59.051   -17 24 41.54  .69407 1.4233 113.1 21.8 2.00   1
2025 10 07 01  05 04 52.836   -17 25 51.68  .69415 1.4237 113.2 21.8 2.07   1
2025 10 07 02  05 04 46.615   -17 27 01.76  .69423 1.4242 113.2 21.8 2.14   1
2025 10 07 03  05 04 40.388   -17 28 11.80  .69431 1.4246 113.3 21.8 2.21   1
2025 10 07 04  05 04 34.155   -17 29 21.78  .69440 1.4250 113.3 21.8 2.29   1
2025 10 07 05  05 04 27.916   -17 30 31.72  .69448 1.4255 113.4 21.8 2.36   1
2025 10 07 06  05 04 21.670   -17 31 41.60  .69456 1.4259 113.4 21.8 2.43   1
2025 10 07 07  05 04 15.419   -17 32 51.43  .69464 1.4263 113.5 21.8 2.51   1
2025 10 07 08  05 04 09.162   -17 34 01.21  .69473 1.4268 113.5 21.8 2.59   1
2025 10 07 09  05 04 02.899   -17 35 10.94  .69481 1.4272 113.6 21.8 2.66   1
2025 10 07 10  05 03 56.629   -17 36 20.62  .69489 1.4276 113.6 21.8 2.74   1
2025 10 07 11  05 03 50.354   -17 37 30.24  .69498 1.4281 113.7 21.8 2.82   1
2025 10 07 12  05 03 44.073   -17 38 39.82  .69506 1.4285 113.7 21.8 2.90   1
2025 10 07 13  05 03 37.786   -17 39 49.34  .69514 1.4289 113.8 21.8 2.98   1
2025 10 07 14  05 03 31.492   -17 40 58.81  .69523 1.4293 113.8 21.8 3.07   1
2025 10 07 15  05 03 25.193   -17 42 08.22  .69531 1.4298 113.9 21.8 3.15   1
2025 10 07 16  05 03 18.888   -17 43 17.59  .69540 1.4302 113.9 21.8 3.23   1
2025 10 07 17  05 03 12.577   -17 44 26.90  .69548 1.4306 114.0 21.8 3.32   1
2025 10 07 18  05 03 06.260   -17 45 36.16  .69557 1.4311 114.0 21.8 3.41   1
2025 10 07 19  05 02 59.936   -17 46 45.37  .69565 1.4315 114.1 21.8 3.49   1
2025 10 07 20  05 02 53.607   -17 47 54.52  .69574 1.4319 114.1 21.8 3.58   1
2025 10 07 21  05 02 47.272   -17 49 03.62  .69583 1.4323 114.1 21.8 3.67   1
2025 10 07 22  05 02 40.931   -17 50 12.67  .69591 1.4328 114.2 21.8 3.76   1
2025 10 07 23  05 02 34.584   -17 51 21.66  .69600 1.4332 114.2 21.8 3.85   1
2025 10 08 00  05 02 28.231   -17 52 30.60  .69608 1.4336 114.3 21.8 3.94   1
2025 10 08 01  05 02 21.872   -17 53 39.49  .69617 1.4341 114.3 21.8 4.04   1
2025 10 08 02  05 02 15.507   -17 54 48.32  .69626 1.4345 114.4 21.8 4.13   1
2025 10 08 03  05 02 09.137   -17 55 57.10  .69635 1.4349 114.4 21.8 4.22   1
2025 10 08 04  05 02 02.760   -17 57 05.83  .69643 1.4353 114.5 21.8 4.32   1
2025 10 08 05  05 01 56.377   -17 58 14.50  .69652 1.4358 114.5 21.8 4.42   1
2025 10 08 06  05 01 49.989   -17 59 23.11  .69661 1.4362 114.6 21.8 4.51   1
2025 10 08 07  05 01 43.594   -18 00 31.68  .69670 1.4366 114.6 21.8 4.61   1
2025 10 08 08  05 01 37.194   -18 01 40.18  .69679 1.4371 114.7 21.8 4.71   1